Location: Hac?musa Deresi
(39.1694°N, 32.2508°E)
Time: 09:59:47
(UTC+00:00)

Envisat - Visible Passes

Search period start: 11 June 2026 00:00
Search period end: 21 June 2026 00:00
Orbit: 761 x 763 km, 98.4° (Epoch: 10 June)

Date Brightness Start Highest point End Pass type
(mag) Time Alt. Az. Time Alt. Az. Time Alt. Az.
11 Jun 3.6 00:05:05 10° NNE 00:10:01 51° E 00:12:49 24° SSE visible
11 Jun 4.7 01:45:06 10° NNW 01:48:31 18° WNW 01:51:55 10° WSW visible
11 Jun 4.9 23:28:06 10° NE 23:32:00 22° E 23:34:33 15° SE visible
12 Jun 3.6 01:06:19 10° N 01:11:02 40° WNW 01:14:41 16° SW visible
13 Jun 2.9 00:28:14 10° NNE 00:33:20 87° ESE 00:36:25 24° SSW visible
13 Jun 4.1 23:50:45 10° NNE 23:55:26 37° E 23:58:08 21° SSE visible
14 Jun 4.3 01:30:05 10° NNW 01:34:08 25° WNW 01:38:11 10° WSW visible
14 Jun 5.2 23:14:17 10° NE 23:17:20 16° E 23:19:52 12° SE visible
15 Jun 3.2 00:51:37 10° N 00:56:34 55° WNW 00:59:59 20° SW visible
16 Jun 3.3 00:13:45 10° NNE 00:18:47 63° E 00:21:42 25° S visible
16 Jun 4.6 23:36:33 10° NE 23:40:49 27° E 23:43:25 18° SE visible
17 Jun 3.9 01:15:13 10° N 01:19:43 33° WNW 01:23:33 13° SW visible
17 Jun 5.5 23:01:13 10° ENE 23:02:37 11° E 23:04:01 10° ESE visible
18 Jun 2.9 00:37:00 10° N 00:42:04 77° WNW 00:45:16 23° SSW visible
18 Jun 3.8 23:59:21 10° NNE 00:04:13 45° E 00:06:59 23° SSE visible
19 Jun 4.5 01:39:06 10° NNW 01:42:47 21° WNW 01:46:28 10° WSW visible
19 Jun 5.0 23:22:32 10° NE 23:26:09 19° E 23:28:42 14° SE visible
20 Jun 3.5 01:00:27 10° N 01:05:16 45° WNW 01:08:48 17° SW visible
